Weather Roundup
Issued by NWS

Home | Current Version | Previous Version | Text Only | Print | Product List | Glossary On
Versions: 1 2 3 4 5 6 7 8 9 10 11 12 13 14 15 16 17 18 19 20 21 22 23 24 25 26 27 28 29 30 31 32 33 34 35 36 37 38 39 40 41 42 43 44 45 46 47 48 49 50
212
NZUS93 KARX 241210
HRRWXR

CURRENT HOURLY OBSERVATIONS ACROSS
MUCH OF THE UPPER MISSISSIPPI VALLEY
NATIONAL WEATHER SERVICE LA CROSSE WI
700 AM CDT WED MAY 24 2017


...SOUTHEAST MINNESOTA...


CITY           SKY/WX    TMP DP  RH WIND       PRES   REMARKS
ROCHESTER      CLOUDY    47  46  97 N10       29.74S
ROCHESTER/MAYO NOT AVBL
WINONA         CLOUDY    52  46  82 N3        29.73S
AUSTIN         CLOUDY    46  45  93 N7        29.73S
ALBERT LEA     CLOUDY    48  46  93 N10       29.74S
DODGE CENTER   CLOUDY    46  45  93 N10       29.74S
PRESTON        CLOUDY    47  45  93 N7        29.72S
OWATONNA       CLOUDY    46  43  87 N9        29.76S
FARIBAULT      CLOUDY    46  45  93 N7        29.77S
$$

...ELSEWHERE IN MINNESOTA...


CITY           SKY/WX    TMP DP  RH WIND       PRES   REMARKS
MINNEAPOLIS    PTSUNNY   48  43  82 N12       29.78S
INTNL FALLS    SUNNY     40  37  89 CALM      29.86S
DULUTH         MOSUNNY   47  43  86 NE8       29.82S
RED WING       CLOUDY    48  43  81 NE5       29.76R
REDWOOD FALLS  MOSUNNY   46  43  89 N6        29.80S
MANKATO        SUNNY     46  44  93 N10       29.78S
WORTHINGTON    FOG       45  45 100 N10       29.81R VSB 1
FAIRMONT       CLOUDY    45  44  97 N10       29.78R
$$

...SOUTHWEST WISCONSIN...


CITY           SKY/WX    TMP DP  RH WIND       PRES   REMARKS
LA CROSSE      CLOUDY    53  50  89 N7        29.71S
PRAIRIE DU CHI CLOUDY    51  46  82 N5        29.68S
BOSCOBEL       CLOUDY    52  49  89 N3        29.68S
LONE ROCK      CLOUDY    52  48  86 N6        29.67S
PLATTEVILLE    CLOUDY    51  51 100 N9        29.66S
FORT MC COY    LGT RAIN  47  47 100 N8        29.72S
CAMP DOUGLAS   DRIZZLE   48  48 100 N5        29.70S
MAUSTON-NEW LI CLOUDY    49  48  95 N5        29.69S FOG
VIROQUA        CLOUDY    49  48  99 MISG      29.68F
WIS DELLS      DRIZZLE   49  47  95 NE7       29.68S
$$

...ELSEWHERE IN WISCONSIN...


CITY           SKY/WX    TMP DP  RH WIND       PRES   REMARKS
MILWAUKEE      LGT RAIN  49  48  97 N8        29.65S VSB 3/4
MADISON        CLOUDY    51  49  92 N8        29.66R
GREEN BAY      CLOUDY    49  49 100 NE12      29.70S FOG
EAU CLAIRE     CLOUDY    48  43  82 N8        29.75R
BLACK RVR FLS  LGT RAIN  50  50 100 N7        29.72S
MEDFORD        CLOUDY    45  43  92 NE9       29.74S
WAUSAU         CLOUDY    47  46  97 N5        29.72R
WIS RAPIDS     CLOUDY    49  47  93 N8        29.72S FOG
MARSHFIELD     LGT RAIN  47  44  90 NE12      29.72S FOG
RICE LAKE      CLOUDY    46  42  86 N9        29.79S
$$

...NORTHEAST IOWA...


CITY           SKY/WX    TMP DP  RH WIND       PRES   REMARKS
WATERLOO       CLOUDY    51  49  92 N10       29.67S
DUBUQUE        CLOUDY    51  49  92 NE10      29.65R
DECORAH        CLOUDY    50  48  93 N8        29.68F
MASON CITY     CLOUDY    48  46  93 N13       29.73S
CHARLES CITY   CLOUDY    50  50 100 NE10      29.70S
OELWEIN        CLOUDY    52  50  93 NE13      29.68R
$$

...ELSEWHERE IN IOWA...


CITY           SKY/WX    TMP DP  RH WIND       PRES   REMARKS
DES MOINES     CLOUDY    53  51  93 N10       29.67S
IOWA CITY      CLOUDY    53  50  89 NW5       29.65S
FORT DODGE     PTSUNNY   50  46  87 N6        29.74R
MARSHALLTOWN   CLOUDY    51  50  96 N12       29.67S
CEDAR RAPIDS   CLOUDY    52  52 100 N10       29.64R
$$

...NORTHERN ILLINOIS...


CITY           SKY/WX    TMP DP  RH WIND       PRES   REMARKS
CHICAGO-OHARE  CLOUDY    54  51  90 N13       29.58F
CHICAGO-MIDWAY CLOUDY    55  53  93 N10       29.58S
MOLINE         CLOUDY    52  48  86 N3        29.62S
ROCKFORD       LGT RAIN  53  52  96 N10       29.64S FOG
PEORIA         FOG       52  52 100 N6        29.59F VSB 1/4
$$

NOTE: "FAIR" INDICATES FEW OR NO CLOUDS BELOW 12,000 FEET WITH NO
SIGNIFICANT WEATHER AND/OR OBSTRUCTIONS TO VISIBILITY. WIND
SPEEDS ARE IN MILES-PER-HOUR.




USA.gov is the U.S. government's official web portal to all federal, state and local government web resources and services.